This is the latest recevied weather packets stored in our database for station/object KL4TQ. If no packets are shown the sender has not sent any weather packets the latest 10 day(s).
| Time | Temp. | Humidity | Pressure | Rain* | Wind** | Luminosity | Snow |
|---|---|---|---|---|---|---|---|
| 1777955169 | 8.33° C | 67% | 857 hPa | 0 mm | - | 68 W/m² | - |
| 1777954869 | 8.33° C | 68% | 857 hPa | 0 mm | - | 84 W/m² | - |
| 1777954568 | 8.33° C | 68% | 857 hPa | 0 mm | - | 85 W/m² | - |
| 1777954268 | 8.33° C | 68% | 857 hPa | 0 mm | - | 92 W/m² | - |
| 1777953969 | 8.33° C | 67% | 857 hPa | 0 mm | - | 99 W/m² | - |
| 1777953678 | 8.33° C | 67% | 857 hPa | 0 mm | - | 118 W/m² | - |
| 1777953368 | 8.33° C | 67% | 857 hPa | 0 mm | - | 134 W/m² | - |
| 1777953069 | 8.33° C | 67% | 857 hPa | 0 mm | - | 129 W/m² | - |
| 1777952768 | 8.33° C | 67% | 857 hPa | 0 mm | - | 115 W/m² | - |
| 1777952468 | 8.33° C | 67% | 857 hPa | 0 mm | - | 114 W/m² | - |
| 1777952169 | 8.33° C | 68% | 857 hPa | 0 mm | - | 113 W/m² | - |
| 1777951868 | 8.33° C | 67% | 857 hPa | 0 mm | - | 102 W/m² | - |
| 1777951569 | 8.33° C | 68% | 857 hPa | 0 mm | - | 125 W/m² | - |
| 1777951268 | 8.33° C | 68% | 857 hPa | 0 mm | - | 135 W/m² | - |
| 1777950969 | 7.78° C | 68% | 857 hPa | 0 mm | - | 108 W/m² | - |
| 1777950668 | 7.78° C | 68% | 857 hPa | 0 mm | - | 78 W/m² | - |
| 1777950369 | 7.78° C | 69% | 857 hPa | 0 mm | - | 51 W/m² | - |
| 1777950068 | 7.78° C | 70% | 857 hPa | 0 mm | - | 49 W/m² | - |
| 1777949769 | 7.78° C | 69% | 857 hPa | 0.51 mm | - | 55 W/m² | - |
| 1777949468 | 7.78° C | 70% | 857 hPa | 0.25 mm | - | 58 W/m² | - |
| 1777949168 | 7.78° C | 71% | 857 hPa | 0.25 mm | - | 66 W/m² | - |
| 1777948868 | 7.78° C | 70% | 857 hPa | 1.02 mm | - | 76 W/m² | - |
| 1777948569 | 7.78° C | 69% | 857 hPa | 0.51 mm | - | 80 W/m² | - |
| 1777948268 | 7.78° C | 69% | 857 hPa | 0.25 mm | - | 71 W/m² | - |
| 1777947968 | 8.33° C | 69% | 857 hPa | 0.51 mm | - | 64 W/m² | - |
* Rain latest hour (hover to see other rain measurements)
** Current wind speed in m/s (hover to see current wind gust speed)